COSMOS 1745

Satellite information

Favourite Embed

Satellite Type and Status

PAYLOADIN ORBIT

Key statistics

Satellite COSMOS 1745 at a glance.

Uptime

14344

Days in orbit

Revolutions

≈ 13.7

Per day

Orbit

LEO

Low Earth Orbit

Inclination

83.0

Latest

Satellite identification and parameters

Extended collection of information and parameters for COSMOS 1745.

Object identification

Identified? True

Debris? False

Object name: COSMOS 1745

International designator: 1986-037A

Object number (NORAD): 16727

Object ID (CCSDS): 16727

Country: COMMONWEALTH OF INDEPENDENT STATES (CIS)

Current information (Y/N): Y

RCS size: LARGE

Orbital parameters

Period: 104.774 minutes

Inclination: 82.9611 deg

SMA: 7361.995 km

Apoapsis: 1006.023 km

Periapsis: 961.697 km

RAAN: 320.5195 deg

Eccentricy: 0.00301048

Argument of periapsis: 297.2156 deg

Mean anomaly: 237.1161 deg

Mean motion: 13.74388504 rev/day

Mean motion (dot): 0.00000066 rev/day2

B* drag term: 0.000054119159 1/REarth

Two-line elements (TLE)

Creation date: Aug. 30, 2025, 3:38 a.m.

Reference frame: TEME

Reference center: EARTH

Epoch: Aug. 29, 2025, 11:11 p.m. UTC

TLE line 0: 0 COSMOS 1745

TLE line 1: 1 16727U 86037A 25241.96619356 .00000066 00000-0 54119-4 0 9992

TLE line 2: 2 16727 82.9611 320.5195 0030105 297.2156 237.1161 13.74388504969152

Live tracking on map

Real-time ground track for satellite COSMOS 1745.

In-orbit conjunctions

A list of the most updated potential collisions computed for object COSMOS 1745.

Target Orbit TCA Probability of collision Miss distance Type
SL-8 R/B LEO 2024-11-25 23:23:28 0.0006149217 288.0 (m) ROCKET BODY
NIMBUS 2 DEB SSO 2024-11-10 05:10:07 0.0001222106 668.0 (m) DEBRIS

Associated space launch

Navigation satellite providing location information for the Tsiklon-B navigation system

COSMOS 1745 was lifted into orbit during the mission ‘Kosmos-3M | Parus 54’, on board a Kosmos-3M space rocket.

The launch took place on May 23, 1986, 12:54 p.m. from 132/1 (132L).

For more information about the launch, click the button.

Launch to space Kosmos-3M | Parus 54
Kosmos-3M | Parus 54

Agency: N/A

Status: Launch Successful

Launch date: May 23, 1986, 12:54 p.m. UTC

Rocket: Kosmos-3M

Launch pad: 132/1 (132L)

Location: Plesetsk Cosmodrome, Russian Federation

...

Latest news about this satellite

There are no fresh news available about this satellite. Check back as we update our databases every day.


Newsletter sign-up

Weekly statistics, charts and insights to help you stay on top of the space industry.